Location: Doux
(49.5045°N, 4.4321°E)
Time: 02:22:55
(UTC+00:00)

Cosmos 2228 Rocket - Pass Details

Date: 23 May 2024
Orbit: 616 x 648 km, 82.5° (Epoch: 17 June)

Event Time Altitude Azimuth Distance (km) Brightness Sun altitude
Exits shadow 00:05:23 41° 153° (SSE) 912 3.5 -19.6°
Maximum altitude 00:06:40 60° 96° (E) 729 3.3 -19.6°
Drops below altitude 10° 00:11:07 10° 17° (NNE) 2,035 6.9 -19.5°
Sets 00:13:24 0° 13° (NNE) 2,954 8.2 -19.4°
